Lapse_Rate
5.6 5.2 5.4 5.5 5.6 5.6 5.8 6.0 6.0 6.0 5.8 5.8 5.7 5.4 5.2 5.2 5.4 5.5 5.5 5.5 5.4 5.7 5.7 5.8 5.8 5.6 5.7 5.8 5.8 5.7 5.8 5.9 5.9 6.0 5.9 5.9 6.0 5.9 5.8 5.9 6.0 5.9 5.8
5.7 5.4 5.4 5.4 5.4 5.5 5.6 5.5 5.7 5.8 5.7 5.8 5.7 5.5 4.9 5.2 5.6 5.6 5.7 5.6 5.6 5.8 5.8 5.8 5.8 5.8 5.8 5.8 5.8 5.9 6.1 6.0 5.9 6.0 6.0 6.2 6.1 5.9 5.9 5.9 5.9 5.9 5.9
5.6 5.6 5.6 5.5 5.5 5.7 5.8 5.6 5.6 5.6 5.6 5.7 5.5 5.3 5.1 5.4 5.4 5.5 5.6 5.4 5.5 5.6 5.8 5.8 5.7 5.8 5.8 5.8 5.8 5.8 5.8 5.8 5.9 5.8 6.0 6.0 6.1 6.0 6.0 6.0 6.0 6.0 6.0
5.7 5.7 5.7 5.6 5.6 5.7 5.8 5.7 5.7 5.7 5.7 5.7 5.6 5.3 5.4 5.4 5.5 5.7 5.6 5.5 5.5 5.7 5.9 5.8 5.8 5.7 5.6 5.6 5.6 5.7 5.6 5.7 5.6 5.8 5.8 5.9 6.0 6.0 6.1 6.0 6.0 6.1 6.1
5.8 5.8 5.7 5.7 5.7 5.7 5.7 5.8 5.9 5.8 5.8 5.8 5.8 5.8 5.6 5.5 5.6 5.9 5.8 5.8 5.9 5.8 5.8 5.8 5.7 6.0 6.0 5.9 5.9 5.8 5.8 5.7 5.8 6.0 5.9 5.9 6.0 6.1 6.0 6.1 6.1 6.1 6.1
5.9 5.8 5.7 5.8 5.8 5.7 5.7 5.8 5.9 5.9 5.9 5.8 5.9 5.8 5.8 5.6 5.5 5.8 5.8 5.8 5.8 5.8 5.9 5.9 5.9 5.9 5.9 6.0 6.1 6.0 6.0 5.9 6.1 6.2 6.1 6.1 6.0 6.2 6.3 6.3 6.2 6.2 6.2
6.1 5.9 5.7 5.7 5.7 5.7 5.8 5.9 5.8 5.9 5.9 5.8 5.8 5.8 5.9 5.9 6.0 6.0 5.9 6.0 6.0 5.9 6.0 5.8 6.0 5.9 5.9 5.9 6.0 6.2 6.2 6.3 6.2 6.4 6.3 6.1 6.2 6.3 6.4 6.3 6.3 6.3 6.2
5.7 6.0 5.8 5.7 5.6 5.6 5.7 5.9 5.9 6.0 5.9 5.8 5.9 5.9 5.9 6.0 6.0 6.0 5.9 6.0 6.0 5.8 5.9 6.0 6.1 6.0 6.1 6.1 6.3 6.4 6.7 6.5 6.5 6.6 6.5 6.4 6.6 6.6 6.5 6.5 6.4 6.3 6.4
5.7 5.9 6.0 5.9 5.8 5.8 5.9 6.0 6.0 6.1 6.1 5.9 5.9 5.7 5.8 5.9 5.8 5.9 5.9 6.0 6.1 6.0 6.0 6.2 6.1 6.1 6.1 6.0 6.0 6.2 6.3 6.6 6.6 6.8 6.8 6.9 6.7 6.5 6.7 6.6 6.5 6.6 6.6
5.9 5.8 5.9 5.9 5.8 5.8 5.9 6.0 6.0 5.9 6.0 6.0 5.8 5.6 5.7 5.7 5.7 5.7 5.7 5.8 5.9 5.9 6.1 6.2 6.1 6.2 6.2 6.0 5.9 6.0 6.3 6.4 6.6 6.7 7.1 6.9 6.9 6.5 6.5 6.6 6.5 6.5 6.6
6.2 6.0 5.9 5.9 5.8 5.8 5.8 5.9 6.0 5.9 6.0 6.0 5.8 5.6 5.6 5.6 5.7 5.6 5.8 5.7 5.6 5.7 5.9 6.1 6.1 6.3 6.3 6.1 5.8 5.8 6.1 6.2 6.5 6.7 6.8 6.7 6.8 6.7 6.4 6.6 6.5 6.6 6.6
6.2 6.1 6.0 5.9 5.8 5.9 5.8 5.8 5.8 5.8 5.8 5.7 5.7 5.7 5.6 5.5 5.6 5.7 5.6 5.5 5.5 5.6 5.8 5.9 6.1 6.1 6.0 5.9 5.9 5.8 6.0 6.0 6.3 6.2 6.5 6.5 6.6 6.7 6.6 6.5 6.6 6.6 6.7
6.3 6.2 6.0 5.8 5.7 5.7 5.9 5.9 5.8 5.8 5.8 5.7 5.8 5.8 5.7 5.7 5.7 5.6 5.6 5.5 5.4 5.4 5.6 5.9 5.9 5.8 5.8 5.9 5.7 5.9 5.9 6.1 5.9 6.0 6.2 6.4 6.2 6.3 6.4 6.6 6.6 6.4 6.7
6.4 6.2 6.0 5.9 5.6 5.6 5.8 5.8 5.9 5.9 5.8 5.7 5.6 5.8 5.7 5.7 5.7 5.8 5.7 5.4 5.4 5.1 5.3 5.4 5.5 5.6 5.6 5.6 5.5 5.7 5.7 5.7 5.9 5.9 5.9 6.1 6.2 6.2 6.2 6.3 6.5 6.5 6.4
6.2 6.3 6.1 6.1 5.9 5.6 5.7 5.7 5.9 5.9 5.8 5.8 5.6 5.7 5.8 5.7 5.6 5.7 5.7 5.5 5.2 5.1 5.1 5.1 5.2 5.3 5.4 5.5 5.3 5.3 5.2 5.3 5.5 5.8 5.8 5.7 5.9 6.0 6.2 6.2 6.3 6.4 6.5
6.0 6.0 6.2 6.2 6.2 5.7 5.8 5.7 5.9 6.0 6.0 5.7 5.7 5.6 5.7 5.8 5.5 5.7 5.6 5.6 5.4 5.0 4.8 5.0 5.1 5.3 5.2 5.3 5.3 5.0 4.9 5.1 5.1 5.4 5.7 5.8 5.8 5.8 5.9 6.1 6.2 6.3 6.4
6.0 6.1 6.2 6.2 6.1 5.9 5.8 5.8 6.2 6.0 5.8 5.8 5.6 5.7 5.7 5.6 5.5 5.7 5.5 5.6 5.4 5.1 5.0 4.9 5.0 5.2 5.2 5.1 4.8 5.0 5.0 4.9 5.1 5.1 5.2 5.5 5.7 5.7 5.7 6.0 6.0 6.2 6.2
5.9 6.4 6.4 6.3 6.1 6.0 5.9 5.9 6.1 5.9 5.8 5.7 5.7 5.9 5.7 5.6 5.7 5.6 5.4 5.4 5.5 5.4 5.4 5.2 5.1 5.1 5.1 5.1 4.9 5.0 4.8 4.7 4.7 4.8 5.1 5.3 5.4 5.4 5.3 5.5 5.8 6.1 6.2
6.3 6.3 6.6 6.6 6.3 6.3 6.1 6.2 5.9 5.7 6.0 6.1 6.1 6.1 5.8 5.6 5.6 5.8 5.6 5.4 5.5 5.5 5.4 5.5 5.3 5.0 4.9 4.8 4.8 4.9 4.8 4.7 5.0 5.0 4.9 4.9 5.4 5.2 5.3 5.3 5.6 5.7 5.9
6.6 6.2 6.3 6.6 6.5 6.3 6.3 6.4 6.6 6.2 6.2 6.6 6.7 6.6 6.1 5.8 5.8 5.9 5.9 5.7 5.7 5.6 5.4 5.4 5.4 5.1 5.1 4.8 4.8 4.6 4.9 4.8 5.0 5.0 4.8 5.0 5.2 5.3 5.2 5.4 5.5 5.5 5.6
7.1 6.8 6.5 6.5 6.7 6.5 6.4 6.4 6.4 6.7 6.5 6.5 6.6 6.6 6.5 6.1 6.0 6.1 6.1 5.9 5.8 5.7 5.4 5.4 5.4 5.3 5.2 5.0 4.9 4.6 4.6 4.9 5.1 5.1 5.0 5.0 4.8 5.0 5.1 5.3 5.2 5.4 5.6
7.5 7.3 7.2 6.8 6.6 6.3 6.3 6.1 6.3 6.6 6.5 6.4 6.3 6.4 6.3 6.1 6.2 6.2 6.1 5.7 5.6 5.6 5.8 5.6 5.3 5.3 5.2 5.0 4.7 4.9 4.7 5.0 5.1 5.3 5.2 5.2 5.0 5.1 5.1 5.2 5.3 5.3 5.5
7.6 7.5 7.3 7.1 6.8 6.4 6.1 6.0 6.2 6.8 6.9 6.8 6.7 6.5 6.3 6.1 6.0 6.2 6.2 6.0 5.7 5.7 5.7 5.6 5.5 5.4 5.3 5.0 5.0 5.0 5.1 5.2 5.3 5.4 5.5 5.3 5.2 5.1 5.0 5.0 5.1 5.1 5.3
7.3 7.4 7.1 6.9 6.9 6.6 6.2 6.0 5.9 6.1 6.5 6.9 6.6 6.3 6.0 6.0 6.0 6.2 6.3 6.2 6.0 5.8 5.7 5.6 5.5 5.5 5.2 5.2 5.3 5.2 5.3 5.4 5.5 5.3 5.4 5.4 5.3 5.2 5.3 5.1 5.1 5.0 5.1
7.5 7.4 7.2 6.9 6.6 6.7 6.6 6.1 6.1 6.3 6.4 6.9 6.7 6.5 6.4 6.2 6.2 6.0 6.1 6.2 6.0 5.8 5.5 5.5 5.4 5.4 5.3 5.3 5.4 5.5 5.3 5.3 5.4 5.5 5.2 5.2 5.2 5.4 5.2 5.0 5.3 5.1 5.0
7.7 7.8 7.3 6.9 6.7 6.6 6.7 6.7 6.4 6.4 6.4 6.6 6.6 6.4 6.3 6.1 6.1 6.0 5.9 5.9 5.9 5.8 5.6 5.5 5.4 5.4 5.4 5.5 5.5 5.5 5.4 5.5 5.4 5.7 5.5 5.3 5.4 5.1 5.2 5.0 5.2 5.3 4.9
Wind_Speed
6 11 14 12 13 14 15 15 15 14 15 16 16 16 16 15 15 16 15 15 16 16 17 18 18 18 18 20 20 20 20 19 18 18 18 18 17 18 18 17 17 16 17
12 14 15 15 15 14 17 17 15 14 16 16 16 15 15 14 15 16 15 15 16 16 18 18 19 20 21 20 20 20 20 20 18 17 18 18 16 17 16 16 17 17 15
14 15 16 16 15 15 15 16 16 15 15 16 15 14 14 15 13 15 16 16 16 16 18 18 19 19 20 21 22 21 20 18 17 16 15 13 14 16 16 16 17 17 16
16 14 14 14 17 16 15 14 14 15 15 14 15 15 15 17 14 15 17 17 16 17 18 18 18 19 19 18 20 18 17 18 19 16 12 12 13 15 16 16 15 16 15
13 14 15 16 17 17 15 14 13 13 13 13 15 16 17 16 14 16 16 15 15 16 18 19 18 19 19 19 17 17 17 17 18 16 17 12 12 14 15 15 14 14 13
11 14 18 18 17 16 15 13 13 12 13 13 14 16 16 15 15 16 16 14 16 16 17 17 16 17 16 15 14 13 13 15 16 17 15 12 14 12 14 14 14 13 13
10 15 18 19 18 16 15 14 13 13 13 13 14 16 16 15 14 16 15 15 15 16 17 15 14 14 12 13 15 13 17 17 15 15 15 12 13 14 13 14 13 14 14
12 15 17 19 18 16 15 14 13 13 13 12 13 16 16 15 14 15 15 14 15 16 16 14 14 13 15 13 11 17 19 16 14 14 12 13 14 14 14 13 12 12 12
14 13 13 14 16 16 14 14 14 13 13 12 13 15 15 16 15 15 14 14 15 16 15 14 13 13 14 11 11 13 14 14 17 14 12 13 13 13 12 12 9 11 12
10 10 9 12 13 13 14 15 15 14 13 12 13 15 16 15 14 15 13 15 15 15 14 14 13 14 13 12 13 13 14 14 14 12 13 14 12 13 11 11 10 10 10
7 6 8 9 12 13 12 14 15 14 14 13 14 16 16 13 13 14 10 15 14 13 13 13 12 12 12 10 9 11 12 13 10 9 10 16 13 13 11 11 8 9 10
11 9 6 9 10 12 10 11 13 12 12 11 11 13 11 12 11 13 12 12 13 11 13 13 12 10 10 9 8 9 11 9 11 11 9 13 13 12 11 12 8 7 9
14 9 9 8 12 10 9 11 10 9 10 10 12 12 10 11 11 9 10 10 10 10 10 11 11 9 9 7 8 9 6 9 9 10 11 10 10 10 11 11 9 7 9
14 13 11 10 10 10 9 9 9 8 9 8 10 14 11 8 6 7 5 9 8 8 7 11 9 7 5 7 8 7 5 8 7 9 10 9 10 10 9 9 9 7 8
14 12 11 9 8 9 8 8 8 7 8 9 10 13 14 9 6 8 7 6 7 9 7 7 7 5 7 6 6 8 8 7 4 5 7 7 8 9 9 9 8 10 9
13 13 12 11 10 11 6 8 7 9 10 10 11 12 14 13 10 8 7 6 7 9 8 8 6 5 5 6 5 6 6 7 5 7 7 6 5 7 8 9 10 8 8
15 14 14 13 13 8 8 10 9 11 11 10 12 14 15 14 12 10 8 6 10 11 8 7 5 7 5 5 4 4 4 3 2 6 6 3 5 6 7 9 10 10 10
13 15 12 12 12 11 8 10 10 10 10 10 13 15 16 17 18 11 7 7 12 11 10 6 3 3 2 3 2 1 1 1 2 5 5 3 2 3 4 7 10 12 11
17 15 14 12 13 13 9 10 9 12 10 11 13 13 14 15 19 13 10 10 14 9 7 5 2 2 2 2 2 2 3 3 4 5 7 6 8 7 6 9 9 11 12
17 17 16 13 12 11 5 3 2 3 6 11 11 12 14 13 15 15 10 10 12 6 4 4 4 2 2 3 2 3 3 4 7 5 6 7 7 12 9 7 9 9 11
17 17 16 14 11 8 4 5 3 4 3 3 8 14 16 15 14 12 7 8 9 6 7 6 3 4 2 3 1 3 3 5 6 5 7 7 8 10 11 10 12 8 12
20 18 17 16 11 11 7 3 3 3 3 3 8 11 15 16 15 12 9 5 6 4 5 5 5 3 2 4 3 1 3 2 3 5 4 3 6 10 9 12 11 14 14
19 19 17 17 15 12 8 4 3 3 3 2 1 2 7 15 14 12 13 8 6 4 6 6 5 6 4 3 6 3 1 3 2 1 4 5 6 5 9 13 13 15 15
16 15 18 16 16 11 9 7 6 5 4 4 4 4 6 13 13 13 13 12 8 6 6 7 6 4 3 3 2 6 3 2 2 3 1 2 5 5 7 9 13 15 16
13 13 14 15 14 11 12 9 6 4 4 3 3 6 6 6 12 12 12 11 6 6 6 7 6 7 5 3 3 2 5 4 4 4 3 3 2 5 5 8 12 13 15
12 12 13 15 15 13 13 11 11 8 6 5 4 5 5 4 6 9 11 11 10 7 6 6 7 8 9 7 5 4 3 3 3 4 6 5 4 3 6 6 8 12 13
Wind_Direction
189 174 170 161 148 142 132 124 124 121 120 127 131 130 128 118 108 100 100 109 109 105 108 112 114 110 107 107 109 107 111 111 111 110 109 105 100 101 101 99 99 93 97
146 159 171 167 162 150 137 129 122 122 125 126 129 133 130 123 114 113 110 111 108 111 104 108 112 114 109 113 116 116 114 116 112 109 108 107 98 101 101 97 96 102 98
145 159 168 170 161 146 139 133 132 130 124 126 127 132 136 128 118 119 113 115 112 109 107 108 107 109 114 118 120 119 118 113 103 106 109 98 101 98 98 93 94 94 94
145 155 159 163 154 150 143 136 135 134 132 129 133 134 132 137 133 123 117 117 119 114 111 113 110 111 113 119 117 114 112 115 115 106 97 94 98 100 100 99 98 98 98
143 145 154 151 143 149 147 145 143 139 134 140 137 136 130 134 132 122 122 121 120 117 114 112 115 118 124 123 126 125 112 113 111 107 106 101 99 109 104 99 97 97 98
136 143 151 148 147 148 150 149 146 141 143 143 140 142 142 138 134 129 128 129 123 120 115 117 118 121 120 127 136 137 128 123 116 115 112 109 111 116 108 106 100 100 96
138 148 152 151 152 152 153 154 151 154 150 149 147 149 150 149 139 131 135 133 122 120 119 117 117 111 112 121 117 120 135 131 125 118 115 113 114 108 103 100 99 95 96
143 151 155 154 153 155 159 159 156 151 152 152 148 150 150 146 141 137 132 139 131 122 122 124 121 111 109 111 105 128 134 133 126 122 120 117 119 115 107 107 105 106 102
148 149 150 156 160 162 156 161 156 156 151 160 150 151 150 146 149 143 146 138 130 126 128 132 129 113 104 100 107 124 134 135 131 131 126 127 126 123 118 118 112 106 105
153 151 148 155 162 163 158 161 160 163 160 156 150 155 153 151 154 148 156 146 134 131 138 137 128 114 111 105 109 126 136 136 136 142 143 142 138 130 125 122 113 111 107
156 155 154 151 156 157 159 166 165 169 158 157 154 160 151 159 155 154 165 151 138 140 138 133 129 125 119 107 117 132 136 135 143 150 152 150 141 139 133 130 125 128 118
171 172 169 160 163 162 164 169 167 166 161 154 156 153 151 152 153 160 167 160 144 137 139 133 131 113 96 92 83 123 145 163 153 156 164 167 154 152 146 137 139 119 130
172 176 179 172 171 170 168 164 172 172 163 162 159 159 156 152 161 168 170 162 153 139 136 128 109 107 102 106 104 136 135 152 154 158 170 175 160 157 153 145 151 142 144
175 184 184 181 175 178 161 168 177 171 175 175 174 167 162 160 172 175 168 161 156 149 139 138 128 118 107 118 114 105 128 149 156 157 171 175 169 166 163 159 159 155 150
182 185 186 184 179 179 166 170 179 185 182 184 180 186 176 168 179 171 180 167 152 166 170 146 144 140 132 111 99 98 111 95 129 159 167 179 178 175 179 173 184 173 167
183 186 181 189 186 180 173 177 186 191 192 188 190 197 182 177 181 170 177 181 174 182 181 186 162 134 111 123 87 85 104 136 163 169 159 168 181 192 198 199 190 197 175
187 183 183 189 183 188 184 182 189 198 193 190 201 200 196 188 195 177 179 182 193 184 168 156 139 124 128 126 128 117 125 124 174 177 178 193 164 181 205 216 211 200 199
178 183 178 191 187 189 193 188 192 195 195 203 197 198 205 195 194 177 191 185 189 180 161 156 143 132 160 140 147 171 232 170 217 233 219 202 202 204 217 218 225 219 215
182 179 180 190 190 191 193 187 195 189 195 200 196 203 208 201 196 189 195 203 181 171 174 165 133 151 162 154 208 210 237 235 231 241 246 241 246 246 249 234 234 230 231
182 180 184 188 191 189 172 158 159 196 201 190 195 193 198 204 193 191 192 188 167 162 163 158 147 176 164 163 235 255 229 216 234 230 237 237 238 237 243 239 235 234 237
181 176 182 182 190 179 161 175 163 192 198 182 191 187 193 198 189 184 185 177 170 173 183 167 147 176 162 149 131 272 262 213 213 219 226 227 233 245 243 257 240 240 234
179 180 179 185 181 190 190 171 163 167 193 189 187 186 189 199 197 187 183 191 181 149 152 166 168 139 160 177 179 132 305 313 227 218 208 207 221 220 218 247 247 245 247
182 180 180 182 182 187 174 126 89 84 65 81 169 189 198 200 203 196 190 186 184 169 177 187 179 167 185 205 214 164 211 253 324 164 231 223 220 206 215 215 236 244 248
184 182 180 178 181 181 165 166 165 182 160 196 177 193 205 204 207 205 195 196 188 186 180 191 189 180 154 186 183 234 230 174 229 312 235 211 217 217 210 211 225 228 234
170 178 187 177 181 176 179 177 191 184 174 155 159 181 204 207 208 213 201 198 197 192 195 183 187 192 198 181 191 177 221 229 222 228 269 249 198 210 222 219 220 222 228
162 170 183 183 183 181 174 184 192 204 179 169 170 187 197 203 211 216 212 207 203 204 204 194 199 198 208 214 203 205 192 175 207 213 231 240 222 230 212 214 217 220 218